Time,TemperatureF,DewpointF,PressureIn,WindDirection,WindDirectionDegrees,WindSpeedMPH,WindSpeedGustMPH,Humidity,HourlyPrecipIn,Conditions,Clouds,dailyrainin,SolarRadiationWatts/m^2,SoftwareType,DateUTC
2019-11-17 00:03:36,41.7,32,29.87,NE,34,0,0,68,0,,,0,0.00,meteobridge,2019-11-16 23:03:36,
2019-11-17 00:08:42,41.7,32,29.88,NE,34,0,0,68,0,,,0,0.00,meteobridge,2019-11-16 23:08:42,
2019-11-17 00:13:50,41.9,32.2,29.88,NE,34,0,0,68,0,,,0,0.00,meteobridge,2019-11-16 23:13:50,
2019-11-17 00:18:58,41.9,32.2,29.88,NE,34,0,1,68,0,,,0,0.00,meteobridge,2019-11-16 23:18:58,
2019-11-17 00:24:20,41.9,32.2,29.88,NE,34,0,0,68,0,,,0,0.00,meteobridge,2019-11-16 23:24:20,
2019-11-17 00:29:28,41.9,32.2,29.88,NE,34,0,0,68,0,,,0,0.00,meteobridge,2019-11-16 23:29:28,
2019-11-17 00:34:36,41.9,32.2,29.88,North,357,2,4,68,0,,,0,0.00,meteobridge,2019-11-16 23:34:36,
2019-11-17 00:39:44,42.1,32.4,29.88,North,11,0,1,68,0,,,0,0.00,meteobridge,2019-11-16 23:39:44,
2019-11-17 00:44:52,42.1,32.4,29.88,North,6,0,2,68,0,,,0,0.00,meteobridge,2019-11-16 23:44:52,
2019-11-17 00:50:00,41.9,32.2,29.88,North,6,0,1,68,0,,,0,0.00,meteobridge,2019-11-16 23:50:00,
2019-11-17 00:55:08,41.7,32,29.88,North,6,0,0,68,0,,,0,0.00,meteobridge,2019-11-16 23:55:08,
2019-11-17 01:00:44,41.7,32,29.88,North,6,0,0,68,0,,,0,0.00,meteobridge,2019-11-17 00:00:44,
2019-11-17 01:05:44,41.5,32.2,29.88,North,6,0,0,69,0,,,0,0.00,meteobridge,2019-11-17 00:05:44,
2019-11-17 01:10:52,41.5,32.2,29.88,North,6,0,0,69,0,,,0,0.00,meteobridge,2019-11-17 00:10:52,
2019-11-17 01:15:54,41.5,32.2,29.88,North,6,0,0,69,0,,,0,0.00,meteobridge,2019-11-17 00:15:54,
2019-11-17 01:21:02,41.5,32.2,29.88,North,6,0.9,2,69,0,,,0,0.00,meteobridge,2019-11-17 00:21:02,
2019-11-17 01:26:08,41.5,32.2,29.88,North,6,0.9,1,69,0,,,0,0.00,meteobridge,2019-11-17 00:26:08,
2019-11-17 01:31:32,41.5,32.2,29.87,NNE,17,0,2,69,0,,,0,0.00,meteobridge,2019-11-17 00:31:32,
2019-11-17 01:36:50,41.5,32.2,29.87,NNE,17,0,1,69,0,,,0,0.00,meteobridge,2019-11-17 00:36:50,
2019-11-17 01:41:58,41.5,32.2,29.88,ENE,57,0.9,4,69,0,,,0,0.00,meteobridge,2019-11-17 00:41:58,
2019-11-17 01:47:14,41.5,32.2,29.88,ENE,57,0.9,2,69,0,,,0,0.00,meteobridge,2019-11-17 00:47:14,
2019-11-17 01:52:32,41.5,32.2,29.88,ENE,57,0,0,69,0,,,0,0.00,meteobridge,2019-11-17 00:52:32,
2019-11-17 01:57:32,41.5,32.2,29.87,NE,52,0,2,69,0,,,0,0.00,meteobridge,2019-11-17 00:57:32,
2019-11-17 02:02:44,41.5,32.2,29.87,ENE,67,0,0,69,0,,,0,0.00,meteobridge,2019-11-17 01:02:44,
2019-11-17 02:07:52,41.5,32.2,29.88,ENE,67,2,2,69,0,,,0,0.00,meteobridge,2019-11-17 01:07:52,
2019-11-17 02:13:18,41.4,32,29.88,ENE,67,0,0,69,0,,,0,0.00,meteobridge,2019-11-17 01:13:18,
2019-11-17 02:18:26,41.4,32,29.88,ENE,67,0,0,69,0,,,0,0.00,meteobridge,2019-11-17 01:18:26,
2019-11-17 02:23:34,41.4,32,29.88,ENE,67,0,2,69,0,,,0,0.00,meteobridge,2019-11-17 01:23:34,
2019-11-17 02:28:40,41.2,31.8,29.88,ENE,67,0,1,69,0,,,0,0.00,meteobridge,2019-11-17 01:28:40,
2019-11-17 02:33:50,40.8,31.5,29.88,ENE,67,0,0,69,0,,,0,0.00,meteobridge,2019-11-17 01:33:50,
2019-11-17 02:38:58,40.5,31.5,29.88,ENE,67,0,0,70,0,,,0,0.00,meteobridge,2019-11-17 01:38:58,
2019-11-17 02:44:20,39.9,30.9,29.88,ENE,67,0,1,70,0,,,0,0.00,meteobridge,2019-11-17 01:44:20,
2019-11-17 02:49:20,39.6,30.6,29.88,NNE,28,0.9,4,70,0,,,0,0.00,meteobridge,2019-11-17 01:49:20,
2019-11-17 02:54:36,39.2,30.6,29.88,NNE,26,0,0,71,0,,,0,0.00,meteobridge,2019-11-17 01:54:36,
2019-11-17 02:59:42,39,30.4,29.88,NNE,26,0,0,71,0,,,0,0.00,meteobridge,2019-11-17 01:59:42,
2019-11-17 03:04:52,38.8,30.2,29.89,NNE,26,0,0,71,0,,,0,0.00,meteobridge,2019-11-17 02:04:52,
2019-11-17 03:09:54,38.7,30,29.88,NNE,26,0,0,71,0,,,0,0.00,meteobridge,2019-11-17 02:09:54,
2019-11-17 03:14:54,38.7,30,29.88,NNE,28,0,2,71,0,,,0,0.00,meteobridge,2019-11-17 02:14:54,
2019-11-17 03:20:02,38.7,30,29.88,NNE,28,0,0,71,0,,,0,0.00,meteobridge,2019-11-17 02:20:02,
2019-11-17 03:25:10,38.5,29.8,29.88,NNE,28,0,0,71,0,,,0,0.00,meteobridge,2019-11-17 02:25:10,
2019-11-17 03:30:32,38.5,29.8,29.88,NNE,28,0,0,71,0,,,0,0.00,meteobridge,2019-11-17 02:30:32,
2019-11-17 03:35:40,38.5,29.8,29.88,NNE,28,0,0,71,0,,,0,0.00,meteobridge,2019-11-17 02:35:40,
2019-11-17 03:41:02,38.1,29.5,29.88,NNE,28,0,2,71,0,,,0,0.00,meteobridge,2019-11-17 02:41:02,
2019-11-17 03:46:02,37.9,29.3,29.88,NE,40,0.9,1,71,0,,,0,0.00,meteobridge,2019-11-17 02:46:02,
2019-11-17 03:51:18,37.9,29.3,29.88,NE,40,0,0,71,0,,,0,0.00,meteobridge,2019-11-17 02:51:18,
2019-11-17 03:56:40,37.9,29.3,29.88,NE,40,0,0,71,0,,,0,0.00,meteobridge,2019-11-17 02:56:40,
2019-11-17 04:01:44,37.6,29.1,29.87,NE,40,0,0,71,0,,,0,0.00,meteobridge,2019-11-17 03:01:44,
2019-11-17 04:06:44,37.4,29.1,29.88,NE,40,0,0,72,0,,,0,0.00,meteobridge,2019-11-17 03:06:44,
2019-11-17 04:11:58,37,28.9,29.87,NE,40,0,1,72,0,,,0,0.00,meteobridge,2019-11-17 03:11:58,
2019-11-17 04:17:04,36.9,28.8,29.87,NE,40,0,0,72,0,,,0,0.00,meteobridge,2019-11-17 03:17:04,
2019-11-17 04:22:20,36.3,28.2,29.87,NE,40,0,0,72,0,,,0,0.00,meteobridge,2019-11-17 03:22:20,
2019-11-17 04:27:26,36.1,28,29.87,NE,40,0,0,72,0,,,0,0.00,meteobridge,2019-11-17 03:27:26,
2019-11-17 04:32:36,36.1,28,29.87,NE,40,0,0,72,0,,,0,0.00,meteobridge,2019-11-17 03:32:36,
2019-11-17 04:37:58,36,27.9,29.87,NE,40,0,0,72,0,,,0,0.00,meteobridge,2019-11-17 03:37:58,
2019-11-17 04:43:04,35.4,27.3,29.87,NE,40,0,0,72,0,,,0,0.00,meteobridge,2019-11-17 03:43:04,
2019-11-17 04:48:28,35.2,27.1,29.87,NE,40,0,0,72,0,,,0,0.00,meteobridge,2019-11-17 03:48:28,
2019-11-17 04:53:58,35.1,27,29.88,NE,40,0,0,72,0,,,0,0.00,meteobridge,2019-11-17 03:53:58,
2019-11-17 04:58:58,35.1,27,29.87,NE,40,0,0,72,0,,,0,0.00,meteobridge,2019-11-17 03:58:58,
2019-11-17 05:04:04,34.9,26.8,29.87,NE,40,0,0,72,0,,,0,0.00,meteobridge,2019-11-17 04:04:04,
2019-11-17 05:09:10,34.9,26.8,29.87,NE,40,0,0,72,0,,,0,0.00,meteobridge,2019-11-17 04:09:10,
2019-11-17 05:14:36,34.5,26.4,29.87,NE,40,0,0,72,0,,,0,0.00,meteobridge,2019-11-17 04:14:36,
2019-11-17 05:19:44,34.5,26.4,29.87,NE,40,0,0,72,0,,,0,0.00,meteobridge,2019-11-17 04:19:44,
2019-11-17 05:24:50,34.3,26.2,29.87,NE,40,0,0,72,0,,,0,0.00,meteobridge,2019-11-17 04:24:50,
2019-11-17 05:30:10,34.3,26.2,29.87,NE,40,0,0,72,0,,,0,0.00,meteobridge,2019-11-17 04:30:10,
2019-11-17 05:35:50,34.2,26.1,29.87,NE,40,0,0,72,0,,,0,0.00,meteobridge,2019-11-17 04:35:50,
2019-11-17 05:40:58,33.6,25.5,29.87,NE,40,0,0,72,0,,,0,0.00,meteobridge,2019-11-17 04:40:58,
2019-11-17 05:46:34,33.3,25.2,29.87,NE,40,0,0,72,0,,,0,0.00,meteobridge,2019-11-17 04:46:34,
2019-11-17 05:51:56,33.3,25.2,29.87,NE,40,0,0,72,0,,,0,0.00,meteobridge,2019-11-17 04:51:56,
2019-11-17 05:57:32,33.4,25.3,29.87,NE,40,0,0,72,0,,,0,0.00,meteobridge,2019-11-17 04:57:32,
2019-11-17 06:02:54,33.4,25.3,29.88,NE,40,0,0,72,0,,,0,0.00,meteobridge,2019-11-17 05:02:54,
2019-11-17 06:07:54,33.4,25.3,29.88,NE,40,0,0,72,0,,,0,0.00,meteobridge,2019-11-17 05:07:54,
2019-11-17 06:13:00,33.4,25.3,29.88,NE,40,0,0,72,0,,,0,0.00,meteobridge,2019-11-17 05:13:00,
2019-11-17 06:18:06,33.1,25,29.88,NE,40,0,0,72,0,,,0,0.00,meteobridge,2019-11-17 05:18:06,
2019-11-17 06:23:18,32.5,24.4,29.88,NE,40,0,0,72,0,,,0,0.00,meteobridge,2019-11-17 05:23:18,
2019-11-17 06:28:40,32.5,24.8,29.88,NE,40,0,0,73,0,,,0,0.00,meteobridge,2019-11-17 05:28:40,
2019-11-17 06:33:48,32.5,24.8,29.88,NE,40,0,0,73,0,,,0,0.00,meteobridge,2019-11-17 05:33:48,
2019-11-17 06:38:58,32.5,24.8,29.88,NE,40,0,0,73,0,,,0,0.00,meteobridge,2019-11-17 05:38:58,
2019-11-17 06:44:34,32.7,25,29.88,NE,40,0,0,73,0,,,0,0.00,meteobridge,2019-11-17 05:44:34,
2019-11-17 06:49:34,32.7,25,29.88,NE,40,0,0,73,0,,,0,0.00,meteobridge,2019-11-17 05:49:34,
2019-11-17 06:54:34,32.9,25.2,29.89,NE,40,2,2,73,0,,,0,0.00,meteobridge,2019-11-17 05:54:34,
2019-11-17 06:59:34,32.9,25.2,29.88,NE,40,0.9,2,73,0,,,0,0.00,meteobridge,2019-11-17 05:59:34,
2019-11-17 07:04:42,32.7,25,29.89,NE,40,0,1,73,0,,,0,0.00,meteobridge,2019-11-17 06:04:42,
2019-11-17 07:09:52,32.5,24.8,29.89,NE,40,0,0,73,0,,,0,0.00,meteobridge,2019-11-17 06:09:52,
2019-11-17 07:14:54,32.5,24.8,29.89,NE,40,0,0,73,0,,,0,0.00,meteobridge,2019-11-17 06:14:54,
2019-11-17 07:19:54,32.5,24.8,29.90,NE,40,0,0,73,0,,,0,0.00,meteobridge,2019-11-17 06:19:54,
2019-11-17 07:25:00,32.2,24.4,29.90,NE,40,0,0,73,0,,,0,0.00,meteobridge,2019-11-17 06:25:00,
2019-11-17 07:30:36,32.2,24.4,29.90,NE,40,0,0,73,0,,,0,0.00,meteobridge,2019-11-17 06:30:36,
2019-11-17 07:35:44,32.2,24.8,29.90,NE,40,0,0,74,0,,,0,0.00,meteobridge,2019-11-17 06:35:44,
2019-11-17 07:40:52,32.2,24.4,29.90,NE,40,0,1,73,0,,,0,0.00,meteobridge,2019-11-17 06:40:52,
2019-11-17 07:45:56,32.5,25.2,29.90,NE,37,0.9,1,74,0,,,0,0.00,meteobridge,2019-11-17 06:45:56,
2019-11-17 07:50:56,32.5,25.2,29.90,NNE,33,0.9,2,74,0,,,0,0.00,meteobridge,2019-11-17 06:50:56,
2019-11-17 07:55:58,32.5,25.2,29.90,NNE,33,0,0,74,0,,,0,0.00,meteobridge,2019-11-17 06:55:58,
2019-11-17 08:00:58,32.4,25,29.90,NNE,33,0,0,74,0,,,0,0.00,meteobridge,2019-11-17 07:00:58,
2019-11-17 08:05:58,32.4,25,29.90,NNE,33,0,0,74,0,,,0,5.00,meteobridge,2019-11-17 07:05:58,
2019-11-17 08:10:58,32.4,25,29.90,NNE,33,0,0,74,0,,,0,7.00,meteobridge,2019-11-17 07:10:58,
2019-11-17 08:16:08,32.5,25.2,29.90,NNE,33,0,1,74,0,,,0,9.00,meteobridge,2019-11-17 07:16:08,
2019-11-17 08:21:16,32.5,25.2,29.90,NNE,33,0,1,74,0,,,0,11.00,meteobridge,2019-11-17 07:21:16,
2019-11-17 08:26:38,32.5,25.2,29.90,NNE,33,0,0,74,0,,,0,12.00,meteobridge,2019-11-17 07:26:38,
2019-11-17 08:31:52,32.5,25.2,29.90,NNE,33,0,0,74,0,,,0,14.00,meteobridge,2019-11-17 07:31:52,
2019-11-17 08:37:08,32.4,25,29.90,NNE,33,0,0,74,0,,,0,18.00,meteobridge,2019-11-17 07:37:08,
2019-11-17 08:42:18,32.5,25.2,29.90,NNE,33,0,0,74,0,,,0,21.00,meteobridge,2019-11-17 07:42:18,
2019-11-17 08:47:26,32.7,25.3,29.90,NNE,33,0,0,74,0,,,0,23.00,meteobridge,2019-11-17 07:47:26,
2019-11-17 08:52:34,32.9,25.5,29.90,NNE,33,0,0,74,0,,,0,26.00,meteobridge,2019-11-17 07:52:34,
2019-11-17 08:57:42,32.4,25,29.90,NNE,33,0,0,74,0,,,0,28.00,meteobridge,2019-11-17 07:57:42,
2019-11-17 09:02:48,32.2,24.8,29.90,NNE,33,0,0,74,0,,,0,28.00,meteobridge,2019-11-17 08:02:48,
2019-11-17 09:07:58,32.2,24.8,29.90,NNE,33,0,0,74,0,,,0,28.00,meteobridge,2019-11-17 08:07:58,
2019-11-17 09:13:22,32,24.6,29.90,NNE,33,0,0,74,0,,,0,39.00,meteobridge,2019-11-17 08:13:22,
2019-11-17 09:18:28,32.2,24.8,29.90,NNE,33,0,0,74,0,,,0,42.00,meteobridge,2019-11-17 08:18:28,
2019-11-17 09:23:30,32.5,25.5,29.89,NNE,33,0,0,75,0,,,0,69.00,meteobridge,2019-11-17 08:23:30,
2019-11-17 09:28:46,33.1,25.7,29.89,NNE,33,0,0,74,0,,,0,74.00,meteobridge,2019-11-17 08:28:46,
2019-11-17 09:33:56,33.1,25.7,29.89,NNE,33,0,0,74,0,,,0,49.00,meteobridge,2019-11-17 08:33:56,
2019-11-17 09:38:56,33.4,26.1,29.89,NNE,33,0,0,74,0,,,0,53.00,meteobridge,2019-11-17 08:38:56,
2019-11-17 09:43:58,33.6,26.2,29.89,NNE,33,0,0,74,0,,,0,65.00,meteobridge,2019-11-17 08:43:58,
2019-11-17 09:48:58,34,26.6,29.89,NNE,33,0,0,74,0,,,0,116.00,meteobridge,2019-11-17 08:48:58,
2019-11-17 09:54:04,34.2,26.8,29.89,NNE,33,0,0,74,0,,,0,141.00,meteobridge,2019-11-17 08:54:04,
2019-11-17 09:59:12,34.3,27,29.89,NNE,31,0.9,2,74,0,,,0,58.00,meteobridge,2019-11-17 08:59:12,
2019-11-17 10:04:12,34.5,27.1,29.90,NNE,31,0,2,74,0,,,0,148.00,meteobridge,2019-11-17 09:04:12,
2019-11-17 10:09:28,34.9,27.5,29.89,NNE,31,0,1,74,0,,,0,77.00,meteobridge,2019-11-17 09:09:28,
2019-11-17 10:14:38,35.2,27.9,29.90,NNE,31,0,0,74,0,,,0,163.00,meteobridge,2019-11-17 09:14:38,
2019-11-17 10:19:46,35.6,27.9,29.90,NNE,31,0,0,73,0,,,0,186.00,meteobridge,2019-11-17 09:19:46,
2019-11-17 10:24:48,36.1,28.4,29.90,NNE,31,2,2,73,0,,,0,181.00,meteobridge,2019-11-17 09:24:48,
2019-11-17 10:29:52,36.1,28,29.90,NNE,28,0.9,2,72,0,,,0,98.00,meteobridge,2019-11-17 09:29:52,
2019-11-17 10:35:00,36.3,28.2,29.89,WNW,292,2,3,72,0,,,0,209.00,meteobridge,2019-11-17 09:35:00,
2019-11-17 10:40:08,36.9,28.4,29.89,West,265,0,2,71,0,,,0,220.00,meteobridge,2019-11-17 09:40:08,
2019-11-17 10:45:12,37.2,28.4,29.88,SSW,209,0.9,1,70,0,,,0,225.00,meteobridge,2019-11-17 09:45:12,
2019-11-17 10:50:24,37.4,28.6,29.88,SW,233,2,3,70,0,,,0,232.00,meteobridge,2019-11-17 09:50:24,
2019-11-17 10:55:24,38.1,29.1,29.88,SW,233,2,3,70,0,,,0,237.00,meteobridge,2019-11-17 09:55:24,
2019-11-17 11:00:24,38.5,29.1,29.88,SSW,198,0,3,69,0,,,0,246.00,meteobridge,2019-11-17 10:00:24,
2019-11-17 11:05:24,38.8,29.5,29.88,SSW,194,0,0,69,0,,,0,258.00,meteobridge,2019-11-17 10:05:24,
2019-11-17 11:10:30,39.6,30.2,29.88,SSW,199,0.9,2,69,0,,,0,264.00,meteobridge,2019-11-17 10:10:30,
2019-11-17 11:15:38,39.7,30,29.88,West,265,2,3,68,0,,,0,269.00,meteobridge,2019-11-17 10:15:38,
2019-11-17 11:20:47,39.9,30.2,29.88,West,276,0,2,68,0,,,0,272.00,meteobridge,2019-11-17 10:20:47,
2019-11-17 11:25:54,40.3,30.2,29.88,SSW,193,0.9,3,67,0,,,0,274.00,meteobridge,2019-11-17 10:25:54,
2019-11-17 11:30:56,40.3,30.2,29.88,South,179,0.9,3,67,0,,,0,262.00,meteobridge,2019-11-17 10:30:56,
2019-11-17 11:35:56,40.8,30.7,29.88,SSW,196,2,2,67,0,,,0,253.00,meteobridge,2019-11-17 10:35:56,
2019-11-17 11:41:12,41.4,31.3,29.88,WSW,241,2.9,3,67,0,,,0,120.00,meteobridge,2019-11-17 10:41:12,
2019-11-17 11:46:18,41,30.6,29.88,West,265,2,3,66,0,,,0,216.00,meteobridge,2019-11-17 10:46:18,
2019-11-17 11:51:26,41.4,30.9,29.88,West,265,0,3,66,0,,,0,234.00,meteobridge,2019-11-17 10:51:26,
2019-11-17 11:56:33,41.7,30.7,29.88,WNW,282,2,3,65,0,,,0,241.00,meteobridge,2019-11-17 10:56:33,
2019-11-17 12:01:40,41.9,30.9,29.88,WNW,282,2,3,65,0,,,0,253.00,meteobridge,2019-11-17 11:01:40,
2019-11-17 12:06:49,42.3,30.9,29.88,WNW,282,2,2,64,0,,,0,223.00,meteobridge,2019-11-17 11:06:49,
2019-11-17 12:11:51,42.4,31.1,29.88,West,279,2,3,64,0,,,0,213.00,meteobridge,2019-11-17 11:11:51,
2019-11-17 12:17:01,42.4,31.1,29.88,West,277,2,3,64,0,,,0,185.00,meteobridge,2019-11-17 11:17:01,
2019-11-17 12:22:09,43,31.6,29.87,West,277,2,2,64,0,,,0,206.00,meteobridge,2019-11-17 11:22:09,
2019-11-17 12:27:17,43,31.6,29.87,West,281,0.9,2,64,0,,,0,236.00,meteobridge,2019-11-17 11:27:17,
2019-11-17 12:32:25,43.3,31.6,29.87,SW,234,0.9,4,63,0,,,0,237.00,meteobridge,2019-11-17 11:32:25,
2019-11-17 12:37:33,43.5,31.3,29.87,WNW,300,2,5,62,0,,,0,211.00,meteobridge,2019-11-17 11:37:33,
2019-11-17 12:42:41,43.5,31.3,29.87,West,277,2,3,62,0,,,0,230.00,meteobridge,2019-11-17 11:42:41,
2019-11-17 12:47:47,43.9,31.6,29.87,WNW,284,0,2,62,0,,,0,197.00,meteobridge,2019-11-17 11:47:47,
2019-11-17 12:52:57,44.2,32,29.87,WNW,284,2,3,62,0,,,0,257.00,meteobridge,2019-11-17 11:52:57,
2019-11-17 12:58:05,44.2,31.6,29.87,WNW,284,2.9,4,61,0,,,0,239.00,meteobridge,2019-11-17 11:58:05,
2019-11-17 13:03:13,44.6,32.4,29.87,WSW,255,0.9,4,62,0,,,0,227.00,meteobridge,2019-11-17 12:03:13,
2019-11-17 13:08:21,44.8,31.8,29.86,West,265,2,3,60,0,,,0,218.00,meteobridge,2019-11-17 12:08:21,
2019-11-17 13:13:29,44.8,31.8,29.86,WSW,238,2,4,60,0,,,0,165.00,meteobridge,2019-11-17 12:13:29,
2019-11-17 13:18:31,44.8,31.8,29.86,WSW,238,0.9,4,60,0,,,0,160.00,meteobridge,2019-11-17 12:18:31,
2019-11-17 13:23:45,45,32.4,29.87,WSW,238,2,3,61,0,,,0,169.00,meteobridge,2019-11-17 12:23:45,
2019-11-17 13:28:53,44.8,31.8,29.86,West,265,2.9,4,60,0,,,0,160.00,meteobridge,2019-11-17 12:28:53,
2019-11-17 13:34:01,45,32,29.86,WSW,244,2,5,60,0,,,0,165.00,meteobridge,2019-11-17 12:34:01,
2019-11-17 13:39:09,45,32.4,29.86,West,279,0.9,3,61,0,,,0,171.00,meteobridge,2019-11-17 12:39:09,
2019-11-17 13:44:17,45,32,29.87,SW,227,0.9,4,60,0,,,0,163.00,meteobridge,2019-11-17 12:44:17,
2019-11-17 13:49:25,45.1,32,29.86,WSW,255,2,4,60,0,,,0,144.00,meteobridge,2019-11-17 12:49:25,
2019-11-17 13:54:27,45.1,32,29.86,SW,223,2.9,4,60,0,,,0,132.00,meteobridge,2019-11-17 12:54:27,
2019-11-17 13:59:41,45.1,32,29.87,SW,232,0,3,60,0,,,0,123.00,meteobridge,2019-11-17 12:59:41,
2019-11-17 14:04:49,45.1,32,29.87,West,273,4,6,60,0,,,0,113.00,meteobridge,2019-11-17 13:04:49,
2019-11-17 14:09:57,45.1,32,29.87,West,279,4,6,60,0,,,0,107.00,meteobridge,2019-11-17 13:09:57,
2019-11-17 14:15:05,45.1,32,29.87,West,274,2,6,60,0,,,0,104.00,meteobridge,2019-11-17 13:15:05,
2019-11-17 14:20:13,45.1,32,29.87,WSW,245,2,3,60,0,,,0,100.00,meteobridge,2019-11-17 13:20:13,
2019-11-17 14:25:15,45.1,32,29.87,WSW,247,2.9,3,60,0,,,0,98.00,meteobridge,2019-11-17 13:25:15,
2019-11-17 14:30:15,45.1,32,29.87,WSW,242,2,3,60,0,,,0,95.00,meteobridge,2019-11-17 13:30:15,
2019-11-17 14:35:23,45.1,32.5,29.87,SW,233,2,5,61,0,,,0,91.00,meteobridge,2019-11-17 13:35:23,
2019-11-17 14:40:25,45,32.4,29.87,WSW,246,0.9,3,61,0,,,0,88.00,meteobridge,2019-11-17 13:40:25,
2019-11-17 14:45:25,45.1,32.5,29.87,SW,227,0.9,4,61,0,,,0,84.00,meteobridge,2019-11-17 13:45:25,
2019-11-17 14:50:27,45,32.7,29.87,SW,227,0.9,2,62,0,,,0,79.00,meteobridge,2019-11-17 13:50:27,
2019-11-17 14:55:27,45,32.7,29.86,SW,229,0,3,62,0,,,0,74.00,meteobridge,2019-11-17 13:55:27,
2019-11-17 15:00:27,45,32.7,29.86,SSW,207,2,4,62,0,,,0,72.00,meteobridge,2019-11-17 14:00:27,
2019-11-17 15:05:41,45,32.7,29.86,WSW,242,2.9,3,62,0,,,0,69.00,meteobridge,2019-11-17 14:05:41,
2019-11-17 15:10:49,44.8,32.5,29.86,WSW,242,2,2,62,0,,,0,67.00,meteobridge,2019-11-17 14:10:49,
2019-11-17 15:15:57,44.8,32.5,29.86,WSW,242,0,1,62,0,,,0,63.00,meteobridge,2019-11-17 14:15:57,
2019-11-17 15:21:05,44.4,32.2,29.86,West,275,0.9,4,62,0,,,0,60.00,meteobridge,2019-11-17 14:21:05,
2019-11-17 15:26:23,44.4,32.2,29.86,WSW,237,0.9,1,62,0,,,0,54.00,meteobridge,2019-11-17 14:26:23,
2019-11-17 15:31:33,44.4,32.2,29.86,WSW,255,0,1,62,0,,,0,51.00,meteobridge,2019-11-17 14:31:33,
2019-11-17 15:36:35,44.2,32.4,29.86,WSW,255,0,1,63,0,,,0,46.00,meteobridge,2019-11-17 14:36:35,
2019-11-17 15:41:37,44.2,32.4,29.86,WSW,255,0,0,63,0,,,0,40.00,meteobridge,2019-11-17 14:41:37,
2019-11-17 15:46:45,44.1,32.4,29.86,WSW,255,0.9,2,63,0,,,0,35.00,meteobridge,2019-11-17 14:46:45,
2019-11-17 15:51:53,44.1,32.7,29.86,WSW,255,0,0,64,0,,,0,33.00,meteobridge,2019-11-17 14:51:53,
2019-11-17 15:57:01,43.9,32.5,29.85,West,260,2,3,64,0,,,0,30.00,meteobridge,2019-11-17 14:57:01,
2019-11-17 16:02:09,43.7,32.4,29.85,WSW,255,2,2,64,0,,,0,28.00,meteobridge,2019-11-17 15:02:09,
2019-11-17 16:07:17,43.5,32.2,29.85,WSW,255,0,0,64,0,,,0,26.00,meteobridge,2019-11-17 15:07:17,
2019-11-17 16:12:31,43.3,32.4,29.85,WSW,255,0,0,65,0,,,0,23.00,meteobridge,2019-11-17 15:12:31,
2019-11-17 16:17:43,43.3,32.4,29.85,WSW,250,0,2,65,0,,,0,18.00,meteobridge,2019-11-17 15:17:43,
2019-11-17 16:22:53,43.3,32.4,29.85,WSW,244,0,1,65,0,,,0,12.00,meteobridge,2019-11-17 15:22:53,
2019-11-17 16:28:01,43.2,32.2,29.85,WSW,244,0,0,65,0,,,0,9.00,meteobridge,2019-11-17 15:28:01,
2019-11-17 16:33:09,43,32,29.85,SW,230,0,1,65,0,,,0,5.00,meteobridge,2019-11-17 15:33:09,
2019-11-17 16:38:17,42.6,31.6,29.85,SW,230,0,0,65,0,,,0,0.00,meteobridge,2019-11-17 15:38:17,
2019-11-17 16:43:25,42.4,31.8,29.85,SW,230,0,2,66,0,,,0,0.00,meteobridge,2019-11-17 15:43:25,
2019-11-17 16:48:27,42.4,31.8,29.85,SW,230,2,2,66,0,,,0,0.00,meteobridge,2019-11-17 15:48:27,
2019-11-17 16:53:39,42.3,31.6,29.85,SW,230,0.9,2,66,0,,,0,0.00,meteobridge,2019-11-17 15:53:39,
2019-11-17 16:58:41,42.1,32,29.85,SW,230,0,1,67,0,,,0,0.00,meteobridge,2019-11-17 15:58:41,
2019-11-17 17:03:53,41.9,31.8,29.85,SW,230,0,0,67,0,,,0,0.00,meteobridge,2019-11-17 16:03:53,
2019-11-17 17:08:55,41.7,31.6,29.85,SW,230,0,1,67,0,,,0,0.00,meteobridge,2019-11-17 16:08:55,
2019-11-17 17:14:01,41.5,31.5,29.85,SW,230,0,0,67,0,,,0,0.00,meteobridge,2019-11-17 16:14:01,
2019-11-17 17:19:01,41.5,31.5,29.85,SW,230,0.9,1,67,0,,,0,0.00,meteobridge,2019-11-17 16:19:01,
2019-11-17 17:24:01,41.4,31.3,29.85,SW,230,0,0,67,0,,,0,0.00,meteobridge,2019-11-17 16:24:01,
2019-11-17 17:29:51,41.2,31.5,29.85,SW,230,0,0,68,0,,,0,0.00,meteobridge,2019-11-17 16:29:51,
2019-11-17 17:34:55,41,31.3,29.85,SW,230,0,1,68,0,,,0,0.00,meteobridge,2019-11-17 16:34:55,
2019-11-17 17:39:55,41.4,31.6,29.85,SW,230,0,2,68,0,,,0,0.00,meteobridge,2019-11-17 16:39:55,
2019-11-17 17:44:55,41.5,31.8,29.85,SW,230,0.9,1,68,0,,,0,0.00,meteobridge,2019-11-17 16:44:55,
2019-11-17 17:49:55,41.4,31.6,29.85,SW,230,0,0,68,0,,,0,0.00,meteobridge,2019-11-17 16:49:55,
2019-11-17 17:54:57,41.2,31.5,29.85,SW,230,0,2,68,0,,,0,0.00,meteobridge,2019-11-17 16:54:57,
2019-11-17 18:00:39,40.8,31.1,29.85,SW,230,0,0,68,0,,,0,0.00,meteobridge,2019-11-17 17:00:39,
2019-11-17 18:05:43,40.6,31.3,29.85,SW,230,0,0,69,0,,,0,0.00,meteobridge,2019-11-17 17:05:43,
2019-11-17 18:10:53,40.5,31.1,29.85,SW,230,0,1,69,0,,,0,0.00,meteobridge,2019-11-17 17:10:53,
2019-11-17 18:15:53,40.5,31.1,29.85,SW,230,0,0,69,0,,,0,0.00,meteobridge,2019-11-17 17:15:53,
2019-11-17 18:21:23,40.5,31.1,29.85,SW,230,0,2,69,0,,,0,0.00,meteobridge,2019-11-17 17:21:23,
2019-11-17 18:26:45,40.5,31.1,29.84,SSW,211,0,2,69,0,,,0,0.00,meteobridge,2019-11-17 17:26:45,
2019-11-17 18:31:49,40.5,31.1,29.84,SSW,204,0.9,2,69,0,,,0,0.00,meteobridge,2019-11-17 17:31:49,
2019-11-17 18:36:55,40.6,31.3,29.84,SSW,200,0,2,69,0,,,0,0.00,meteobridge,2019-11-17 17:36:55,
2019-11-17 18:41:59,40.6,31.3,29.84,South,180,2,2,69,0,,,0,0.00,meteobridge,2019-11-17 17:41:59,
2019-11-17 18:46:59,40.8,31.8,29.84,SW,221,2,2,70,0,,,0,0.00,meteobridge,2019-11-17 17:46:59,
2019-11-17 18:52:05,40.8,31.5,29.84,SW,216,0.9,3,69,0,,,0,0.00,meteobridge,2019-11-17 17:52:05,
2019-11-17 18:57:13,41,31.6,29.84,South,188,0,3,69,0,,,0,0.00,meteobridge,2019-11-17 17:57:13,
2019-11-17 19:02:13,40.8,31.5,29.84,South,186,2,3,69,0,,,0,0.00,meteobridge,2019-11-17 18:02:13,
2019-11-17 19:07:21,40.8,31.5,29.84,South,186,0.9,2,69,0,,,0,0.00,meteobridge,2019-11-17 18:07:21,
2019-11-17 19:12:21,40.6,31.6,29.84,South,186,2,2,70,0,,,0,0.00,meteobridge,2019-11-17 18:12:21,
2019-11-17 19:17:21,40.8,31.8,29.84,SSW,197,0.9,2,70,0,,,0,0.00,meteobridge,2019-11-17 18:17:21,
2019-11-17 19:22:33,40.6,31.6,29.84,SSW,209,0,3,70,0,,,0,0.00,meteobridge,2019-11-17 18:22:33,
2019-11-17 19:27:37,40.5,31.5,29.85,SSW,209,0.9,1,70,0,,,0,0.00,meteobridge,2019-11-17 18:27:37,
2019-11-17 19:32:37,40.5,31.5,29.85,SSW,210,0,2,70,0,,,0,0.00,meteobridge,2019-11-17 18:32:37,
2019-11-17 19:37:47,40.5,31.5,29.85,SSW,210,0.9,2,70,0,,,0,0.00,meteobridge,2019-11-17 18:37:47,
2019-11-17 19:42:55,40.3,31.3,29.85,SSW,210,0,1,70,0,,,0,0.00,meteobridge,2019-11-17 18:42:55,
2019-11-17 19:47:57,40.3,31.3,29.85,SSW,210,0,0,70,0,,,0,0.00,meteobridge,2019-11-17 18:47:57,
2019-11-17 19:52:59,39.9,30.9,29.85,SSW,210,0,2,70,0,,,0,0.00,meteobridge,2019-11-17 18:52:59,
2019-11-17 19:58:07,39.7,31.1,29.85,SSW,210,0.9,1,71,0,,,0,0.00,meteobridge,2019-11-17 18:58:07,
2019-11-17 20:03:13,39.7,31.1,29.85,SSW,210,2,2,71,0,,,0,0.00,meteobridge,2019-11-17 19:03:13,
2019-11-17 20:08:21,39.7,31.1,29.84,SSW,210,2.9,3,71,0,,,0,0.00,meteobridge,2019-11-17 19:08:21,
2019-11-17 20:13:21,39.7,31.1,29.84,SSW,210,0,2,71,0,,,0,0.00,meteobridge,2019-11-17 19:13:21,
2019-11-17 20:18:27,39.7,31.1,29.84,SSW,209,0,0,71,0,,,0,0.00,meteobridge,2019-11-17 19:18:27,
2019-11-17 20:23:37,39.7,31.1,29.84,SSW,209,0,3,71,0,,,0,0.00,meteobridge,2019-11-17 19:23:37,
2019-11-17 20:28:37,39.7,31.1,29.83,SSW,209,2,2,71,0,,,0,0.00,meteobridge,2019-11-17 19:28:37,
2019-11-17 20:33:43,39.6,30.9,29.83,SSW,209,0,2,71,0,,,0,0.00,meteobridge,2019-11-17 19:33:43,
2019-11-17 20:38:43,39.6,30.9,29.83,SSW,209,0.9,2,71,0,,,0,0.00,meteobridge,2019-11-17 19:38:43,
2019-11-17 20:43:47,39.4,30.7,29.83,SSW,209,0,2,71,0,,,0,0.00,meteobridge,2019-11-17 19:43:47,
2019-11-17 20:48:59,39.2,30.6,29.83,SSW,209,0,0,71,0,,,0,0.00,meteobridge,2019-11-17 19:48:59,
2019-11-17 20:54:17,39.4,30.7,29.83,SSW,209,0,2,71,0,,,0,0.00,meteobridge,2019-11-17 19:54:17,
2019-11-17 20:59:29,39.2,30.6,29.83,SSW,209,0.9,1,71,0,,,0,0.00,meteobridge,2019-11-17 19:59:29,
2019-11-17 21:04:39,39.2,30.6,29.83,SSW,209,0,0,71,0,,,0,0.00,meteobridge,2019-11-17 20:04:39,
2019-11-17 21:10:01,39.4,30.7,29.83,SSW,209,0,0,71,0,,,0,0.00,meteobridge,2019-11-17 20:10:01,
2019-11-17 21:15:13,39.2,30.6,29.83,SSW,209,0,0,71,0,,,0,0.00,meteobridge,2019-11-17 20:15:13,
2019-11-17 21:20:19,39.4,30.7,29.83,SSW,209,0,0,71,0,,,0,0.00,meteobridge,2019-11-17 20:20:19,
2019-11-17 21:25:27,39.2,30.6,29.83,SSW,209,0,0,71,0,,,0,0.00,meteobridge,2019-11-17 20:25:27,
2019-11-17 21:30:27,39.2,30.6,29.83,SSW,209,2,3,71,0,,,0,0.00,meteobridge,2019-11-17 20:30:27,
2019-11-17 21:35:27,39.2,30.6,29.83,SSW,209,0,2,71,0,,,0,0.00,meteobridge,2019-11-17 20:35:27,
2019-11-17 21:40:27,39,30.4,29.83,South,170,0.9,3,71,0,,,0,0.00,meteobridge,2019-11-17 20:40:27,
2019-11-17 21:45:29,39,30.4,29.83,South,170,0.9,3,71,0,,,0,0.00,meteobridge,2019-11-17 20:45:29,
2019-11-17 21:50:35,39,30.4,29.83,SSE,166,2,4,71,0,,,0,0.00,meteobridge,2019-11-17 20:50:35,
2019-11-17 21:55:35,39.2,30.6,29.83,South,174,4.9,5,71,0,,,0,0.00,meteobridge,2019-11-17 20:55:35,
2019-11-17 22:00:43,39.2,30.6,29.83,SSE,167,2,4,71,0,,,0,0.00,meteobridge,2019-11-17 21:00:43,
2019-11-17 22:05:45,39.2,30.6,29.83,South,169,0.9,4,71,0,,,0,0.00,meteobridge,2019-11-17 21:05:45,
2019-11-17 22:10:49,39.2,30.6,29.83,South,169,0,3,71,0,,,0,0.00,meteobridge,2019-11-17 21:10:49,
2019-11-17 22:15:55,39.2,30.6,29.83,South,169,0.9,1,71,0,,,0,0.00,meteobridge,2019-11-17 21:15:55,
2019-11-17 22:21:09,39.2,30.6,29.83,South,169,0,1,71,0,,,0,0.00,meteobridge,2019-11-17 21:21:09,
2019-11-17 22:26:13,39.2,30.6,29.83,South,169,0.9,2,71,0,,,0,0.00,meteobridge,2019-11-17 21:26:13,
2019-11-17 22:31:19,39.2,30.6,29.83,South,169,0.9,3,71,0,,,0,0.00,meteobridge,2019-11-17 21:31:19,
2019-11-17 22:36:19,39,30.4,29.83,South,169,0,2,71,0,,,0,0.00,meteobridge,2019-11-17 21:36:19,
2019-11-17 22:41:23,39,30.4,29.83,South,169,0,2,71,0,,,0,0.00,meteobridge,2019-11-17 21:41:23,
2019-11-17 22:46:29,39.2,30.6,29.83,South,169,2,3,71,0,,,0,0.00,meteobridge,2019-11-17 21:46:29,
2019-11-17 22:51:37,39.2,30.6,29.83,South,169,2,3,71,0,,,0,0.00,meteobridge,2019-11-17 21:51:37,
2019-11-17 22:56:37,39.4,30.7,29.83,South,169,0.9,2,71,0,,,0,0.00,meteobridge,2019-11-17 21:56:37,
2019-11-17 23:01:41,39.4,30.7,29.82,South,169,0.9,3,71,0,,,0,0.00,meteobridge,2019-11-17 22:01:41,
2019-11-17 23:07:03,39.4,30.7,29.83,South,169,0,0,71,0,,,0,0.00,meteobridge,2019-11-17 22:07:03,
2019-11-17 23:12:09,39.4,30.7,29.82,South,169,0,2,71,0,,,0,0.00,meteobridge,2019-11-17 22:12:09,
2019-11-17 23:17:15,39.2,30.6,29.82,South,169,0,0,71,0,,,0,0.00,meteobridge,2019-11-17 22:17:15,
2019-11-17 23:22:15,39.2,30.6,29.82,South,169,0,0,71,0,,,0,0.00,meteobridge,2019-11-17 22:22:15,
2019-11-17 23:27:35,39.2,30.6,29.82,South,169,0,0,71,0,,,0,0.00,meteobridge,2019-11-17 22:27:35,
2019-11-17 23:32:39,39.4,30.7,29.83,South,169,0.9,2,71,0,,,0,0.00,meteobridge,2019-11-17 22:32:39,
2019-11-17 23:37:51,39.4,30.7,29.82,South,169,0,1,71,0,,,0,0.00,meteobridge,2019-11-17 22:37:51,
2019-11-17 23:42:59,39.4,30.7,29.83,South,169,0,1,71,0,,,0,0.00,meteobridge,2019-11-17 22:42:59,
2019-11-17 23:48:07,39.2,30.6,29.82,South,169,0,0,71,0,,,0,0.00,meteobridge,2019-11-17 22:48:07,
2019-11-17 23:53:15,39.2,30.6,29.82,South,169,0,2,71,0,,,0,0.00,meteobridge,2019-11-17 22:53:15,
2019-11-17 23:58:23,39,30.4,29.82,South,169,0,1,71,0,,,0,0.00,meteobridge,2019-11-17 22:58:23,